Year,Month,Day,Hour,Minute,Value (Times are PST for temperature in C)
2018,08,08,00,00,14.10
2018,08,08,00,01,14.10
2018,08,08,00,02,14.10
2018,08,08,00,03,14.10
2018,08,08,00,04,14.10
2018,08,08,00,05,14.10
2018,08,08,00,06,14.10
2018,08,08,00,07,14.00
2018,08,08,00,08,14.00
2018,08,08,00,09,14.00
2018,08,08,00,10,14.00
2018,08,08,00,11,13.90
2018,08,08,00,12,13.90
2018,08,08,00,13,13.90
2018,08,08,00,14,13.90
2018,08,08,00,15,14.00
2018,08,08,00,16,14.00
2018,08,08,00,17,14.00
2018,08,08,00,18,14.10
2018,08,08,00,19,14.10
2018,08,08,00,20,14.10
2018,08,08,00,21,14.10
2018,08,08,00,22,14.10
2018,08,08,00,23,14.10
2018,08,08,00,24,14.10
2018,08,08,00,25,14.10
2018,08,08,00,26,14.10
2018,08,08,00,27,14.10
2018,08,08,00,28,14.10
2018,08,08,00,29,14.10
2018,08,08,00,30,14.00
2018,08,08,00,31,14.00
2018,08,08,00,32,14.00
2018,08,08,00,33,14.00
2018,08,08,00,34,14.00
2018,08,08,00,35,14.00
2018,08,08,00,36,14.00
2018,08,08,00,37,14.00
2018,08,08,00,38,14.00
2018,08,08,00,39,14.00
2018,08,08,00,40,14.00
2018,08,08,00,41,14.00
2018,08,08,00,42,14.00
2018,08,08,00,43,14.10
2018,08,08,00,44,14.10
2018,08,08,00,45,14.10
2018,08,08,00,46,14.10
2018,08,08,00,47,14.10
2018,08,08,00,48,14.10
2018,08,08,00,49,14.10
2018,08,08,00,50,14.10
2018,08,08,00,51,14.10
2018,08,08,00,52,14.10
2018,08,08,00,53,14.10
2018,08,08,00,54,14.10
2018,08,08,00,55,14.00
2018,08,08,00,56,14.00
2018,08,08,00,57,14.00
2018,08,08,00,58,14.00
2018,08,08,00,59,14.00
2018,08,08,01,00,14.00
2018,08,08,01,01,14.00
2018,08,08,01,02,14.00
2018,08,08,01,03,14.00
2018,08,08,01,04,14.00
2018,08,08,01,05,14.00
2018,08,08,01,06,13.90
2018,08,08,01,07,14.00
2018,08,08,01,08,13.90
2018,08,08,01,09,13.90
2018,08,08,01,10,13.90
2018,08,08,01,11,13.90
2018,08,08,01,12,13.90
2018,08,08,01,13,13.90
2018,08,08,01,14,13.90
2018,08,08,01,15,13.90
2018,08,08,01,16,13.80
2018,08,08,01,17,13.80
2018,08,08,01,18,13.80
2018,08,08,01,19,13.80
2018,08,08,01,20,13.70
2018,08,08,01,21,13.70
2018,08,08,01,22,13.70
2018,08,08,01,23,13.70
2018,08,08,01,24,13.70
2018,08,08,01,25,13.70
2018,08,08,01,26,13.70
2018,08,08,01,27,13.70
2018,08,08,01,28,13.70
2018,08,08,01,29,13.60
2018,08,08,01,30,13.60
2018,08,08,01,31,13.60
2018,08,08,01,32,13.70
2018,08,08,01,33,13.80
2018,08,08,01,34,13.80
2018,08,08,01,35,13.90
2018,08,08,01,36,13.90
2018,08,08,01,37,13.90
2018,08,08,01,38,13.90
2018,08,08,01,39,13.90
2018,08,08,01,40,13.80
2018,08,08,01,41,13.80
2018,08,08,01,42,13.80
2018,08,08,01,43,13.80
2018,08,08,01,44,13.80
2018,08,08,01,45,13.80
2018,08,08,01,46,13.80
2018,08,08,01,47,13.90
2018,08,08,01,48,13.90
2018,08,08,01,49,13.90
2018,08,08,01,50,13.90
2018,08,08,01,51,13.90
2018,08,08,01,52,13.90
2018,08,08,01,53,13.90
2018,08,08,01,54,13.90
2018,08,08,01,55,13.90
2018,08,08,01,56,13.90
2018,08,08,01,57,13.90
2018,08,08,01,58,13.90
2018,08,08,01,59,13.80
2018,08,08,02,00,13.80
2018,08,08,02,01,13.80
2018,08,08,02,02,13.70
2018,08,08,02,03,13.60
2018,08,08,02,04,13.60
2018,08,08,02,05,13.60
2018,08,08,02,06,13.50
2018,08,08,02,07,13.60
2018,08,08,02,08,13.60
2018,08,08,02,09,13.60
2018,08,08,02,10,13.60
2018,08,08,02,11,13.60
2018,08,08,02,12,13.70
2018,08,08,02,13,13.70
2018,08,08,02,14,13.70
2018,08,08,02,15,13.70
2018,08,08,02,16,13.70
2018,08,08,02,17,13.70
2018,08,08,02,18,13.70
2018,08,08,02,19,13.70
2018,08,08,02,20,13.60
2018,08,08,02,21,13.50
2018,08,08,02,22,13.40
2018,08,08,02,23,13.40
2018,08,08,02,24,13.40
2018,08,08,02,25,13.40
2018,08,08,02,26,13.40
2018,08,08,02,27,13.50
2018,08,08,02,28,13.50
2018,08,08,02,29,13.50
2018,08,08,02,30,13.60
2018,08,08,02,31,13.60
2018,08,08,02,32,13.60
2018,08,08,02,33,13.60
2018,08,08,02,34,13.60
2018,08,08,02,35,13.60
2018,08,08,02,36,13.70
2018,08,08,02,37,13.70
2018,08,08,02,38,13.70
2018,08,08,02,39,13.60
2018,08,08,02,40,13.60
2018,08,08,02,41,13.60
2018,08,08,02,42,13.60
2018,08,08,02,43,13.60
2018,08,08,02,44,13.50
2018,08,08,02,45,13.50
2018,08,08,02,46,13.40
2018,08,08,02,47,13.40
2018,08,08,02,48,13.40
2018,08,08,02,49,13.40
2018,08,08,02,50,13.40
2018,08,08,02,51,13.40
2018,08,08,02,52,13.40
2018,08,08,02,53,13.50
2018,08,08,02,54,13.50
2018,08,08,02,55,13.50
2018,08,08,02,56,13.40
2018,08,08,02,57,13.40
2018,08,08,02,58,13.40
2018,08,08,02,59,13.40
2018,08,08,03,00,13.40
2018,08,08,03,01,13.40
2018,08,08,03,02,13.50
2018,08,08,03,03,13.50
2018,08,08,03,04,13.50
2018,08,08,03,05,13.50
2018,08,08,03,06,13.50
2018,08,08,03,07,13.60
2018,08,08,03,08,13.50
2018,08,08,03,09,13.50
2018,08,08,03,10,13.50
2018,08,08,03,11,13.40
2018,08,08,03,12,13.40
2018,08,08,03,13,13.40
2018,08,08,03,14,13.40
2018,08,08,03,15,13.50
2018,08,08,03,16,13.50
2018,08,08,03,17,13.60
2018,08,08,03,18,13.50
2018,08,08,03,19,13.50
2018,08,08,03,20,13.40
2018,08,08,03,21,13.40
2018,08,08,03,22,13.30
2018,08,08,03,23,13.40
2018,08,08,03,24,13.40
2018,08,08,03,25,13.40
2018,08,08,03,26,13.40
2018,08,08,03,27,13.40
2018,08,08,03,28,13.40
2018,08,08,03,29,13.40
2018,08,08,03,30,13.40
2018,08,08,03,31,13.40
2018,08,08,03,32,13.40
2018,08,08,03,33,13.40
2018,08,08,03,34,13.40
2018,08,08,03,35,13.40
2018,08,08,03,36,13.40
2018,08,08,03,37,13.50
2018,08,08,03,38,13.50
2018,08,08,03,39,13.40
2018,08,08,03,40,13.40
2018,08,08,03,41,13.40
2018,08,08,03,42,13.50
2018,08,08,03,43,13.50
2018,08,08,03,44,13.50
2018,08,08,03,45,13.50
2018,08,08,03,46,13.50
2018,08,08,03,47,13.50
2018,08,08,03,48,13.50
2018,08,08,03,49,13.50
2018,08,08,03,50,13.50
2018,08,08,03,51,13.50
2018,08,08,03,52,13.50
2018,08,08,03,53,13.50
2018,08,08,03,54,13.50
2018,08,08,03,55,13.50
2018,08,08,03,56,13.50
2018,08,08,03,57,13.50
2018,08,08,03,58,13.60
2018,08,08,03,59,13.60
2018,08,08,04,00,13.60
2018,08,08,04,01,13.60
2018,08,08,04,02,13.70
2018,08,08,04,03,13.70
2018,08,08,04,04,13.70
2018,08,08,04,05,13.70
2018,08,08,04,06,13.70
2018,08,08,04,07,13.70
2018,08,08,04,08,13.70
2018,08,08,04,09,13.70
2018,08,08,04,10,13.70
2018,08,08,04,11,13.80
2018,08,08,04,12,13.80
2018,08,08,04,13,13.80
2018,08,08,04,14,13.80
2018,08,08,04,15,13.80
2018,08,08,04,16,13.80
2018,08,08,04,17,13.80
2018,08,08,04,18,13.80
2018,08,08,04,19,13.90
2018,08,08,04,20,13.90
2018,08,08,04,21,13.90
2018,08,08,04,22,14.00
2018,08,08,04,23,14.00
2018,08,08,04,24,14.00
2018,08,08,04,25,14.00
2018,08,08,04,26,14.00
2018,08,08,04,27,14.00
2018,08,08,04,28,14.00
2018,08,08,04,29,14.10
2018,08,08,04,30,14.10
2018,08,08,04,31,14.10
2018,08,08,04,32,14.10
2018,08,08,04,33,14.10
2018,08,08,04,34,14.00
2018,08,08,04,35,14.00
2018,08,08,04,36,14.00
2018,08,08,04,37,14.00
2018,08,08,04,38,14.00
2018,08,08,04,39,14.00
2018,08,08,04,40,14.00
2018,08,08,04,41,14.10
2018,08,08,04,42,14.10
2018,08,08,04,43,14.10
2018,08,08,04,44,14.10
2018,08,08,04,45,14.10
2018,08,08,04,46,14.10
2018,08,08,04,47,14.00
2018,08,08,04,48,14.00
2018,08,08,04,49,14.10
2018,08,08,04,50,14.00
2018,08,08,04,51,14.00
2018,08,08,04,52,14.10
2018,08,08,04,53,14.10
2018,08,08,04,54,14.00
2018,08,08,04,55,14.10
2018,08,08,04,56,14.10
2018,08,08,04,57,14.10
2018,08,08,04,58,14.10
2018,08,08,04,59,14.10
2018,08,08,05,00,14.10
2018,08,08,05,01,14.10
2018,08,08,05,02,14.10
2018,08,08,05,03,14.10
2018,08,08,05,04,14.10
2018,08,08,05,05,14.10
2018,08,08,05,06,14.10
2018,08,08,05,07,14.10
2018,08,08,05,08,14.10
2018,08,08,05,09,14.10
2018,08,08,05,10,14.10
2018,08,08,05,11,14.20
2018,08,08,05,12,14.20
2018,08,08,05,13,14.20
2018,08,08,05,14,14.20
2018,08,08,05,15,14.20
2018,08,08,05,16,14.20
2018,08,08,05,17,14.20
2018,08,08,05,18,14.20
2018,08,08,05,19,14.10
2018,08,08,05,20,14.10
2018,08,08,05,21,14.10
2018,08,08,05,22,14.10
2018,08,08,05,23,14.10
2018,08,08,05,24,14.10
2018,08,08,05,25,14.10
2018,08,08,05,26,14.10
2018,08,08,05,27,14.10
2018,08,08,05,28,14.10
2018,08,08,05,29,14.10
2018,08,08,05,30,14.10
2018,08,08,05,31,14.10
2018,08,08,05,32,14.10
2018,08,08,05,33,14.10
2018,08,08,05,34,14.10
2018,08,08,05,35,14.10
2018,08,08,05,36,14.10
2018,08,08,05,37,14.10
2018,08,08,05,38,14.10
2018,08,08,05,39,14.20
2018,08,08,05,40,14.20
2018,08,08,05,41,14.20
2018,08,08,05,42,14.20
2018,08,08,05,43,14.20
2018,08,08,05,44,14.20
2018,08,08,05,45,14.20
2018,08,08,05,46,14.20
2018,08,08,05,47,14.20
2018,08,08,05,48,14.20
2018,08,08,05,49,14.30
2018,08,08,05,50,14.30
2018,08,08,05,51,14.30
2018,08,08,05,52,14.30
2018,08,08,05,53,14.30
2018,08,08,05,54,14.30
2018,08,08,05,55,14.30
2018,08,08,05,56,14.40
2018,08,08,05,57,14.40
2018,08,08,05,58,14.40
2018,08,08,05,59,14.40
2018,08,08,06,00,14.40
2018,08,08,06,01,14.30
2018,08,08,06,02,14.30
2018,08,08,06,03,14.30
2018,08,08,06,04,14.30
2018,08,08,06,05,14.40
2018,08,08,06,06,14.40
2018,08,08,06,07,14.40
2018,08,08,06,08,14.30
2018,08,08,06,09,14.30
2018,08,08,06,10,14.40
2018,08,08,06,11,14.40
2018,08,08,06,12,14.40
2018,08,08,06,13,14.40
2018,08,08,06,14,14.40
2018,08,08,06,15,14.40
2018,08,08,06,16,14.40
2018,08,08,06,17,14.40
2018,08,08,06,18,14.40
2018,08,08,06,19,14.40
2018,08,08,06,20,14.40
2018,08,08,06,21,14.50
2018,08,08,06,22,14.50
2018,08,08,06,23,14.50
2018,08,08,06,24,14.60
2018,08,08,06,25,14.60
2018,08,08,06,26,14.70
2018,08,08,06,27,14.70
2018,08,08,06,28,14.60
2018,08,08,06,29,14.60
2018,08,08,06,30,14.50
2018,08,08,06,31,14.50
2018,08,08,06,32,14.50
2018,08,08,06,33,14.50
2018,08,08,06,34,14.40
2018,08,08,06,35,14.40
2018,08,08,06,36,14.40
2018,08,08,06,37,14.50
2018,08,08,06,38,14.50
2018,08,08,06,39,14.50
2018,08,08,06,40,14.60
2018,08,08,06,41,14.60
2018,08,08,06,42,14.60
2018,08,08,06,43,14.60
2018,08,08,06,44,14.60
2018,08,08,06,45,14.60
2018,08,08,06,46,14.60
2018,08,08,06,47,14.60
2018,08,08,06,48,14.60
2018,08,08,06,49,14.60
2018,08,08,06,50,14.60
2018,08,08,06,51,14.50
2018,08,08,06,52,14.50
2018,08,08,06,53,14.50
2018,08,08,06,54,14.40
2018,08,08,06,55,14.40
2018,08,08,06,56,14.40
2018,08,08,06,57,14.40
2018,08,08,06,58,14.40
2018,08,08,06,59,14.40
2018,08,08,07,00,14.40
2018,08,08,07,01,14.40
2018,08,08,07,02,14.40
2018,08,08,07,03,14.40
2018,08,08,07,04,14.40
2018,08,08,07,05,14.40
2018,08,08,07,06,14.40
2018,08,08,07,07,14.50
2018,08,08,07,08,14.50
2018,08,08,07,09,14.60
2018,08,08,07,10,14.60
2018,08,08,07,11,14.60
2018,08,08,07,12,14.60
2018,08,08,07,13,14.60
2018,08,08,07,14,14.60
2018,08,08,07,15,14.60
2018,08,08,07,16,14.60
2018,08,08,07,17,14.60
2018,08,08,07,18,14.70
2018,08,08,07,19,14.70
2018,08,08,07,20,14.70
2018,08,08,07,21,14.80
2018,08,08,07,22,14.80
2018,08,08,07,23,14.90
2018,08,08,07,24,14.90
2018,08,08,07,25,14.90
2018,08,08,07,26,14.90
2018,08,08,07,27,14.90
2018,08,08,07,28,15.00
2018,08,08,07,29,15.00
2018,08,08,07,30,15.10
2018,08,08,07,31,15.10
2018,08,08,07,32,15.20
2018,08,08,07,33,15.20
2018,08,08,07,34,15.20
2018,08,08,07,35,15.20
2018,08,08,07,36,15.30
2018,08,08,07,37,15.30
2018,08,08,07,38,15.30
2018,08,08,07,39,15.30
2018,08,08,07,40,15.40
2018,08,08,07,41,15.40
2018,08,08,07,42,15.40
2018,08,08,07,43,15.40
2018,08,08,07,44,15.50
2018,08,08,07,45,15.50
2018,08,08,07,46,15.60
2018,08,08,07,47,15.60
2018,08,08,07,48,15.60
2018,08,08,07,49,15.70
2018,08,08,07,50,15.70
2018,08,08,07,51,15.80
2018,08,08,07,52,15.80
2018,08,08,07,53,15.90
2018,08,08,07,54,15.90
2018,08,08,07,55,16.00
2018,08,08,07,56,16.00
2018,08,08,07,57,16.10
2018,08,08,07,58,16.10
2018,08,08,07,59,16.20
2018,08,08,08,00,16.20
2018,08,08,08,01,16.30
2018,08,08,08,02,16.30
2018,08,08,08,03,16.30
2018,08,08,08,04,16.40
2018,08,08,08,05,16.40
2018,08,08,08,06,16.50
2018,08,08,08,07,16.50
2018,08,08,08,08,16.60
2018,08,08,08,09,16.70
2018,08,08,08,10,16.70
2018,08,08,08,11,16.70
2018,08,08,08,12,16.80
2018,08,08,08,13,16.80
2018,08,08,08,14,16.80
2018,08,08,08,15,16.90
2018,08,08,08,16,16.90
2018,08,08,08,17,16.90
2018,08,08,08,18,17.00
2018,08,08,08,19,17.00
2018,08,08,08,20,17.10
2018,08,08,08,21,17.20
2018,08,08,08,22,17.30
2018,08,08,08,23,17.40
2018,08,08,08,24,17.40
2018,08,08,08,25,17.50
2018,08,08,08,26,17.60
2018,08,08,08,27,17.60
2018,08,08,08,28,17.60
2018,08,08,08,29,17.70
2018,08,08,08,30,17.80
2018,08,08,08,31,17.90
2018,08,08,08,32,17.90
2018,08,08,08,33,18.00
2018,08,08,08,34,18.10
2018,08,08,08,35,18.20
2018,08,08,08,36,18.20
2018,08,08,08,37,18.20
2018,08,08,08,38,18.30
2018,08,08,08,39,18.30
2018,08,08,08,40,18.40
2018,08,08,08,41,18.40
2018,08,08,08,42,18.40
2018,08,08,08,43,18.50
2018,08,08,08,44,18.50
2018,08,08,08,45,18.60
2018,08,08,08,46,18.60
2018,08,08,08,47,18.60
2018,08,08,08,48,18.60
2018,08,08,08,49,18.60
2018,08,08,08,50,18.60
2018,08,08,08,51,18.60
2018,08,08,08,52,18.70
2018,08,08,08,53,18.70
2018,08,08,08,54,18.70
2018,08,08,08,55,18.80
2018,08,08,08,56,18.80
2018,08,08,08,57,18.90
2018,08,08,08,58,18.90
2018,08,08,08,59,19.00
2018,08,08,09,00,19.00
2018,08,08,09,01,19.10
2018,08,08,09,02,19.20
2018,08,08,09,03,19.20
2018,08,08,09,04,19.30
2018,08,08,09,05,19.30
2018,08,08,09,06,19.40
2018,08,08,09,07,19.40
2018,08,08,09,08,19.50
2018,08,08,09,09,19.60
2018,08,08,09,10,19.70
2018,08,08,09,11,19.80
2018,08,08,09,12,19.80
2018,08,08,09,13,19.90
2018,08,08,09,14,20.10
2018,08,08,09,15,20.20
2018,08,08,09,16,20.30
2018,08,08,09,17,20.30
2018,08,08,09,18,20.40
2018,08,08,09,19,20.50
2018,08,08,09,20,20.60
2018,08,08,09,21,20.60
2018,08,08,09,22,20.70
2018,08,08,09,23,20.60
2018,08,08,09,24,20.60
2018,08,08,09,25,20.60
2018,08,08,09,26,20.60
2018,08,08,09,27,20.50
2018,08,08,09,28,20.40
2018,08,08,09,29,20.40
2018,08,08,09,30,20.30
2018,08,08,09,31,20.20
2018,08,08,09,32,20.10
2018,08,08,09,33,20.00
2018,08,08,09,34,19.90
2018,08,08,09,35,19.80
2018,08,08,09,36,19.70
2018,08,08,09,37,19.70
2018,08,08,09,38,19.60
2018,08,08,09,39,19.60
2018,08,08,09,40,19.50
2018,08,08,09,41,19.40
2018,08,08,09,42,19.40
2018,08,08,09,43,19.40
2018,08,08,09,44,19.40
2018,08,08,09,45,19.40
2018,08,08,09,46,19.40
2018,08,08,09,47,19.40
2018,08,08,09,48,19.40
2018,08,08,09,49,19.40
2018,08,08,09,50,19.40
2018,08,08,09,51,19.40
2018,08,08,09,52,19.40
2018,08,08,09,53,19.40
2018,08,08,09,54,19.40
2018,08,08,09,55,19.40
2018,08,08,09,56,19.50
2018,08,08,09,57,19.50
2018,08,08,09,58,19.50
2018,08,08,09,59,19.50
2018,08,08,10,00,19.60
2018,08,08,10,01,19.60
2018,08,08,10,02,19.60
2018,08,08,10,03,19.70
2018,08,08,10,04,19.70
2018,08,08,10,05,19.80
2018,08,08,10,06,19.80
2018,08,08,10,07,19.90
2018,08,08,10,08,20.00
2018,08,08,10,09,20.00
2018,08,08,10,10,20.10
2018,08,08,10,11,20.20
2018,08,08,10,12,20.20
2018,08,08,10,13,20.30
2018,08,08,10,14,20.30
2018,08,08,10,15,20.30
2018,08,08,10,16,20.30
2018,08,08,10,17,20.20
2018,08,08,10,18,20.20
2018,08,08,10,19,20.20
2018,08,08,10,20,20.20
2018,08,08,10,21,20.20
2018,08,08,10,22,20.20
2018,08,08,10,23,20.20
2018,08,08,10,24,20.10
2018,08,08,10,25,20.10
2018,08,08,10,26,20.10
2018,08,08,10,27,20.10
2018,08,08,10,28,20.00
2018,08,08,10,29,20.00
2018,08,08,10,30,20.00
2018,08,08,10,31,20.00
2018,08,08,10,32,20.10
2018,08,08,10,33,20.10
2018,08,08,10,34,20.20
2018,08,08,10,35,20.20
2018,08,08,10,36,20.30
2018,08,08,10,37,20.30
2018,08,08,10,38,20.30
2018,08,08,10,39,20.20
2018,08,08,10,40,20.10
2018,08,08,10,41,19.90
2018,08,08,10,42,19.80
2018,08,08,10,43,19.60
2018,08,08,10,44,19.50
2018,08,08,10,45,19.40
2018,08,08,10,46,19.40
2018,08,08,10,47,19.40
2018,08,08,10,48,19.40
2018,08,08,10,49,19.40
2018,08,08,10,50,19.30
2018,08,08,10,51,19.30
2018,08,08,10,52,19.30
2018,08,08,10,53,19.30
2018,08,08,10,54,19.20
2018,08,08,10,55,19.20
2018,08,08,10,56,19.20
2018,08,08,10,57,19.20
2018,08,08,10,58,19.20
2018,08,08,10,59,19.20
2018,08,08,11,00,19.30
2018,08,08,11,01,19.30
2018,08,08,11,02,19.30
2018,08,08,11,03,19.40
2018,08,08,11,04,19.40
2018,08,08,11,05,19.50
2018,08,08,11,06,19.50
2018,08,08,11,07,19.50
2018,08,08,11,08,19.50
2018,08,08,11,09,19.40
2018,08,08,11,10,19.40
2018,08,08,11,11,19.40
2018,08,08,11,12,19.50
2018,08,08,11,13,19.50
2018,08,08,11,14,19.60
2018,08,08,11,15,19.60
2018,08,08,11,16,19.60
2018,08,08,11,17,19.60
2018,08,08,11,18,19.60
2018,08,08,11,19,19.60
2018,08,08,11,20,19.70
2018,08,08,11,21,19.70
2018,08,08,11,22,19.70
2018,08,08,11,23,19.70
2018,08,08,11,24,19.80
2018,08,08,11,25,19.70
2018,08,08,11,26,19.80
2018,08,08,11,27,19.70
2018,08,08,11,28,19.70
2018,08,08,11,29,19.70
2018,08,08,11,30,19.60
2018,08,08,11,31,19.60
2018,08,08,11,32,19.70
2018,08,08,11,33,19.70
2018,08,08,11,34,19.60
2018,08,08,11,35,19.50
2018,08,08,11,36,19.40
2018,08,08,11,37,19.30
2018,08,08,11,38,19.30
2018,08,08,11,39,19.30
2018,08,08,11,40,19.30
2018,08,08,11,41,19.30
2018,08,08,11,42,19.40
2018,08,08,11,43,19.60
2018,08,08,11,44,19.70
2018,08,08,11,45,19.90
2018,08,08,11,46,20.00
2018,08,08,11,47,20.10
2018,08,08,11,48,20.20
2018,08,08,11,49,20.30
2018,08,08,11,50,20.40
2018,08,08,11,51,20.40
2018,08,08,11,52,20.50
2018,08,08,11,53,20.60
2018,08,08,11,54,20.70
2018,08,08,11,55,20.70
2018,08,08,11,56,20.80
2018,08,08,11,57,20.80
2018,08,08,11,58,20.90
2018,08,08,11,59,21.00
2018,08,08,12,00,21.10
2018,08,08,12,01,21.20
2018,08,08,12,02,21.30
2018,08,08,12,03,21.40
2018,08,08,12,04,21.30
2018,08,08,12,05,21.30
2018,08,08,12,06,21.30
2018,08,08,12,07,21.20
2018,08,08,12,08,21.00
2018,08,08,12,09,20.90
2018,08,08,12,10,20.80
2018,08,08,12,11,20.70
2018,08,08,12,12,20.70
2018,08,08,12,13,20.80
2018,08,08,12,14,20.80
2018,08,08,12,15,20.80
2018,08,08,12,16,20.80
2018,08,08,12,17,20.80
2018,08,08,12,18,20.90
2018,08,08,12,19,20.90
2018,08,08,12,20,21.00
2018,08,08,12,21,21.10
2018,08,08,12,22,21.20
2018,08,08,12,23,21.20
2018,08,08,12,24,21.20
2018,08,08,12,25,21.20
2018,08,08,12,26,21.30
2018,08,08,12,27,21.30
2018,08,08,12,28,21.40
2018,08,08,12,29,21.50
2018,08,08,12,30,21.60
2018,08,08,12,31,21.60
2018,08,08,12,32,21.70
2018,08,08,12,33,21.70
2018,08,08,12,34,21.80
2018,08,08,12,35,21.70
2018,08,08,12,36,21.70
2018,08,08,12,37,21.70
2018,08,08,12,38,21.80
2018,08,08,12,39,21.80
2018,08,08,12,40,21.90
2018,08,08,12,41,22.00
2018,08,08,12,42,22.00
2018,08,08,12,43,22.00
2018,08,08,12,44,22.00
2018,08,08,12,45,22.00
2018,08,08,12,46,22.00
2018,08,08,12,47,22.00
2018,08,08,12,48,22.00
2018,08,08,12,49,22.00
2018,08,08,12,50,22.00
2018,08,08,12,51,22.00
2018,08,08,12,52,22.10
2018,08,08,12,53,22.10
2018,08,08,12,54,22.20
2018,08,08,12,55,22.30
2018,08,08,12,56,22.40
2018,08,08,12,57,22.50
2018,08,08,12,58,22.70
2018,08,08,12,59,22.80
2018,08,08,13,00,22.90
2018,08,08,13,01,23.00
2018,08,08,13,02,23.10
2018,08,08,13,03,23.10
2018,08,08,13,04,23.20
2018,08,08,13,05,23.20
2018,08,08,13,06,23.10
2018,08,08,13,07,23.20
2018,08,08,13,08,23.10
2018,08,08,13,09,23.10
2018,08,08,13,10,23.00
2018,08,08,13,11,22.90
2018,08,08,13,12,22.90
2018,08,08,13,13,22.90
2018,08,08,13,14,23.00
2018,08,08,13,15,23.00
2018,08,08,13,16,23.10
2018,08,08,13,17,23.00
2018,08,08,13,18,23.00
2018,08,08,13,19,23.10
2018,08,08,13,20,22.90
2018,08,08,13,21,22.70
2018,08,08,13,22,22.60
2018,08,08,13,23,22.60
2018,08,08,13,24,22.60
2018,08,08,13,25,22.50
2018,08,08,13,26,22.40
2018,08,08,13,27,22.30
2018,08,08,13,28,22.20
2018,08,08,13,29,22.20
2018,08,08,13,30,22.10
2018,08,08,13,31,22.00
2018,08,08,13,32,22.00
2018,08,08,13,33,21.90
2018,08,08,13,34,21.80
2018,08,08,13,35,21.80
2018,08,08,13,36,21.80
2018,08,08,13,37,21.70
2018,08,08,13,38,21.80
2018,08,08,13,39,21.80
2018,08,08,13,40,21.90
2018,08,08,13,41,22.00
2018,08,08,13,42,22.00
2018,08,08,13,43,22.10
2018,08,08,13,44,22.20
2018,08,08,13,45,22.40
2018,08,08,13,46,22.50
2018,08,08,13,47,22.60
2018,08,08,13,48,22.70
2018,08,08,13,49,22.70
2018,08,08,13,50,22.80
2018,08,08,13,51,22.90
2018,08,08,13,52,23.00
2018,08,08,13,53,23.10
2018,08,08,13,54,23.20
2018,08,08,13,55,23.40
2018,08,08,13,56,23.50
2018,08,08,13,57,23.60
2018,08,08,13,58,23.70
2018,08,08,13,59,23.80
2018,08,08,14,00,23.90
2018,08,08,14,01,24.00
2018,08,08,14,02,24.10
2018,08,08,14,03,24.10
2018,08,08,14,04,24.20
2018,08,08,14,05,24.30
2018,08,08,14,06,24.40
2018,08,08,14,07,24.40
2018,08,08,14,08,24.50
2018,08,08,14,09,24.60
2018,08,08,14,10,24.70
2018,08,08,14,11,24.70
2018,08,08,14,12,24.80
2018,08,08,14,13,24.80
2018,08,08,14,14,24.90
2018,08,08,14,15,25.00
2018,08,08,14,16,25.00
2018,08,08,14,17,25.00
2018,08,08,14,18,25.00
2018,08,08,14,19,24.90
2018,08,08,14,20,24.90
2018,08,08,14,21,24.80
2018,08,08,14,22,24.90
2018,08,08,14,23,24.90
2018,08,08,14,24,24.90
2018,08,08,14,25,24.80
2018,08,08,14,26,24.70
2018,08,08,14,27,24.60
2018,08,08,14,28,24.50
2018,08,08,14,29,24.40
2018,08,08,14,30,24.40
2018,08,08,14,31,24.40
2018,08,08,14,32,24.40
2018,08,08,14,33,24.50
2018,08,08,14,34,24.50
2018,08,08,14,35,24.60
2018,08,08,14,36,24.60
2018,08,08,14,37,24.50
2018,08,08,14,38,24.50
2018,08,08,14,39,24.50
2018,08,08,14,40,24.60
2018,08,08,14,41,24.60
2018,08,08,14,42,24.70
2018,08,08,14,43,24.70
2018,08,08,14,44,24.70
2018,08,08,14,45,24.60
2018,08,08,14,46,24.40
2018,08,08,14,47,24.30
2018,08,08,14,48,24.20
2018,08,08,14,49,24.20
2018,08,08,14,50,24.20
2018,08,08,14,51,24.10
2018,08,08,14,52,24.10
2018,08,08,14,53,24.00
2018,08,08,14,54,24.10
2018,08,08,14,55,24.20
2018,08,08,14,56,24.20
2018,08,08,14,57,24.20
2018,08,08,14,58,24.20
2018,08,08,14,59,24.30
2018,08,08,15,00,24.30
2018,08,08,15,01,24.30
2018,08,08,15,02,24.30
2018,08,08,15,03,24.20
2018,08,08,15,04,24.10
2018,08,08,15,05,24.00
2018,08,08,15,06,23.80
2018,08,08,15,07,23.70
2018,08,08,15,08,23.60
2018,08,08,15,09,23.50
2018,08,08,15,10,23.50
2018,08,08,15,11,23.40
2018,08,08,15,12,23.30
2018,08,08,15,13,23.30
2018,08,08,15,14,23.30
2018,08,08,15,15,23.30
2018,08,08,15,16,23.30
2018,08,08,15,17,23.40
2018,08,08,15,18,23.50
2018,08,08,15,19,23.60
2018,08,08,15,20,23.70
2018,08,08,15,21,23.80
2018,08,08,15,22,23.90
2018,08,08,15,23,23.90
2018,08,08,15,24,23.90
2018,08,08,15,25,23.80
2018,08,08,15,26,23.70
2018,08,08,15,27,23.70
2018,08,08,15,28,23.70
2018,08,08,15,29,23.70
2018,08,08,15,30,23.80
2018,08,08,15,31,23.80
2018,08,08,15,32,23.80
2018,08,08,15,33,23.80
2018,08,08,15,34,23.80
2018,08,08,15,35,23.70
2018,08,08,15,36,23.70
2018,08,08,15,37,23.80
2018,08,08,15,38,23.80
2018,08,08,15,39,23.90
2018,08,08,15,40,23.80
2018,08,08,15,41,23.80
2018,08,08,15,42,23.70
2018,08,08,15,43,23.60
2018,08,08,15,44,23.50
2018,08,08,15,45,23.40
2018,08,08,15,46,23.40
2018,08,08,15,47,23.30
2018,08,08,15,48,23.30
2018,08,08,15,49,23.30
2018,08,08,15,50,23.40
2018,08,08,15,51,23.40
2018,08,08,15,52,23.40
2018,08,08,15,53,23.50
2018,08,08,15,54,23.50
2018,08,08,15,55,23.50
2018,08,08,15,56,23.50
2018,08,08,15,57,23.50
2018,08,08,15,58,23.50
2018,08,08,15,59,23.50
2018,08,08,16,00,23.60
2018,08,08,16,01,23.60
2018,08,08,16,02,23.60
2018,08,08,16,03,23.70
2018,08,08,16,04,23.70
2018,08,08,16,05,23.80
2018,08,08,16,06,23.90
2018,08,08,16,07,24.10
2018,08,08,16,08,24.20
2018,08,08,16,09,24.30
2018,08,08,16,10,24.40
2018,08,08,16,11,24.40
2018,08,08,16,12,24.50
2018,08,08,16,13,24.60
2018,08,08,16,14,24.70
2018,08,08,16,15,24.70
2018,08,08,16,16,24.80
2018,08,08,16,17,24.90
2018,08,08,16,18,25.00
2018,08,08,16,19,25.00
2018,08,08,16,20,25.10
2018,08,08,16,21,25.10
2018,08,08,16,22,25.10
2018,08,08,16,23,25.10
2018,08,08,16,24,25.10
2018,08,08,16,25,25.00
2018,08,08,16,26,25.00
2018,08,08,16,27,25.00
2018,08,08,16,28,25.00
2018,08,08,16,29,25.00
2018,08,08,16,30,25.00
2018,08,08,16,31,25.00
2018,08,08,16,32,24.90
2018,08,08,16,33,24.90
2018,08,08,16,34,24.80
2018,08,08,16,35,24.80
2018,08,08,16,36,24.90
2018,08,08,16,37,24.90
2018,08,08,16,38,25.00
2018,08,08,16,39,25.10
2018,08,08,16,40,25.10
2018,08,08,16,41,25.10
2018,08,08,16,42,25.10
2018,08,08,16,43,25.10
2018,08,08,16,44,25.10
2018,08,08,16,45,25.10
2018,08,08,16,46,25.00
2018,08,08,16,47,25.00
2018,08,08,16,48,25.00
2018,08,08,16,49,25.00
2018,08,08,16,50,25.00
2018,08,08,16,51,25.10
2018,08,08,16,52,25.10
2018,08,08,16,53,25.10
2018,08,08,16,54,25.10
2018,08,08,16,55,25.00
2018,08,08,16,56,24.90
2018,08,08,16,57,24.70
2018,08,08,16,58,24.60
2018,08,08,16,59,24.40
2018,08,08,17,00,24.30
2018,08,08,17,01,24.20
2018,08,08,17,02,24.20
2018,08,08,17,03,24.20
2018,08,08,17,04,24.20
2018,08,08,17,05,24.30
2018,08,08,17,06,24.30
2018,08,08,17,07,24.30
2018,08,08,17,08,24.30
2018,08,08,17,09,24.30
2018,08,08,17,10,24.30
2018,08,08,17,11,24.30
2018,08,08,17,12,24.30
2018,08,08,17,13,24.30
2018,08,08,17,14,24.30
2018,08,08,17,15,24.40
2018,08,08,17,16,24.40
2018,08,08,17,17,24.50
2018,08,08,17,18,24.50
2018,08,08,17,19,24.50